Regional Weather Roundup
Issued by NWS Charleston, SC

Current Version | Previous Version | Graphics & Text | Print | Product List | Glossary On
Versions: 1 2 3 4 5 6 7 8 9 10 11 12 13 14 15 16 17 18 19 20 21 22 23 24 25 26 27 28 29 30 31 32 33 34 35 36 37 38 39 40 41 42 43 44 45 46 47 48 49 50
000
ASUS42 KCHS 131025
RWRCHS

REGIONAL WEATHER ROUNDUP
NATIONAL WEATHER SERVICE CHARLESTON SC
600 AM EDT SUN JUL 13 2014

NOTE: "FAIR" INDICATES FEW OR NO CLOUDS BELOW 12,000 FEET WITH NO
SIGNIFICANT WEATHER AND/OR OBSTRUCTIONS TO VISIBILITY.

NOT ALL STATIONS ARE QUALITY CONTROLLED BY THE NATIONAL
WEATHER SERVICE. USE DATA WITH CAUTION...ESPECIALLY
DEWPOINT OBSERVATIONS.

SCZ027-030-031-034>040-042>050-131100-
...SOUTH CAROLINA...

CITY           SKY/WX    TMP DP  RH WIND       PRES   REMARKS
N CHARLESTON   PTCLDY    74  71  91 CALM      30.13F
WATERFRONT PRK   N/A     79 N/A N/A N5          N/A
FORT JOHNSON   NOT AVBL
MOUNT PLEASANT FAIR      72  72 100 CALM      30.14R
JOHNS ISLAND   SUNNY     73  68  83 CALM      30.14R
PINOPOLIS        N/A     77  73  88 MISG      30.07S
MONCKS CORNER    N/A     70  70 100 CALM      30.14S
SUMMERVILLE    FAIR      70  70 100 CALM      30.15S
BEAUFORT MCAS  PTCLDY    76  73  91 NE5       30.13S
BEAUFORT ARPT  FAIR      75  75 100 CALM      30.12S
HILTON HEAD IS NOT AVBL
GEORGETOWN     NOT AVBL
WALTERBORO     SUNNY     72 N/A N/A CALM      30.15R
ORANGEBURG     CLEAR     71  69  93 CALM      30.14S
BARNWELL       FAIR      72  72 100 CALM      30.14S
AIKEN          FAIR      68  68 100 CALM      30.17S
MANNING        FAIR      73 N/A N/A CALM      30.15R
KINGSTREE      NOT AVBL
COLUMBIA       CLEAR     73  69  87 CALM      30.13S
SUMTER         PTCLDY    72  72  99 CALM      30.13S
FLORENCE       PTCLDY    72  70  93 S3        30.15R
MYRTLE BEACH   CLEAR     73  70  88 N5        30.15R
N MYRTLE BEACH PTCLDY    74  71  91 CALM      30.15R

$$

GAZ063-065-086>088-099>101-113>116-118-119-134-136>141-150-131100-
...GEORGIA...

CITY           SKY/WX    TMP DP  RH WIND       PRES   REMARKS
SAVANNAH ARPT  MOCLDY    73  71  93 N5        30.13F
HUNTER AAF     LGT RAIN  73  73 100 N2        30.11R
FORT STEWART   CLEAR     72  71  96 CALM      30.12S
STATESBORO     NOT AVBL
SYLVANIA       SUNNY     70  70 100 CALM      30.14S
CLAXTON        FAIR     N/A N/A N/A CALM      30.13S
THOMSON        CLEAR     71  71 100 CALM      30.18R
AUGUSTA-BUSH   PTCLDY    68  67  96 CALM      30.13R FOG
AUGUSTA-DANIEL CLEAR     73  71  93 CALM      30.14S
SWAINSBORO     CLOUDY    70  70 100 CALM      30.14S
VIDALIA          N/A     72  72 100 CALM      30.14S
ALMA           FOG       71  70  96 NW3       30.13R VSB 1/2
WAYCROSS       FOG       72  72 100 CALM      30.12R VSB 1/2
JESUP          NOT AVBL
BRUNSWICK      PTCLDY    73  72  94 CALM      30.12R
SAINT SIMONS   PTCLDY    75  74  96 NW5       30.11R

$$

SCZ027-028-034-036>038-045-046-048>050-GAZ119-141-131100-
...LAKE AND SUPPLEMENTAL COASTAL OBSERVATIONS...

STATION/POSITION TIME  TEMP    WIND        PRES    WAVE   SWELL
                       AIR SEA DIR/SP/G            HT/PER HT/PER/DIR
                 (UTC) (F)     (DEG/KT/KT) (MB)    (FT/S) (FT/S/D)
UPR LAKE MARION  NOT AVBL
WINYAH BAY       1000   73     310/  3     1020.0S
LAKE MURRAY      0900   77     250/  5/  7 1020.0S
ACE BASIN NERRS  1000   74     330/  1     1020.0S
FORT PULASKI     1000   75 77  300/  5/  7   N/A
SAPELO ISLAND    1000   75     310/  5     1020.0R

$$

ANZ835-935-AMZ111-154-330-350-352-354-374-450-454-472-131100-
...C-MAN AND BUOY OBSERVATIONS...

STATION/POSITION TIME  TEMP    WIND        PRES    WAVE   SWELL
                       AIR SEA DIR/SP/G            HT/PER HT/PER/DIR
                 (UTC) (F)     (DEG/KT/KT) (MB)    (FT/S) (FT/S/D)
FOLLY BEACH CMAN 1000   76     340/  2/  4 1020.8R
BUOY 41004       1000   81 82  200/  4/  6 1019.5R   2/ 7   2/ 7
BUOY 41008       1000   82 84  190/ 12/ 14 1018.8F   2/ 8   2/ 90/ 8
5E ST. MARYS GA  1000      83                N/A     2/ 7
FRYING PAN BUOY  NOT AVBL
BUOY 41025       1000          VRB  6/  8  1020.7R   2/ 6   2/ 50/ 6
CAPE LOOKOUT NC  1000   78     270/  4/  5 1020.7R
BUOY 41002       0950   80 83  230/  4/  6 1020.9R   3/ 8   2/140/ 8
BUOY 41010       1000   82 83  150/ 14/ 14 1019.1R   3/ 8   2/120/ 8
BUOY 41012       NOT AVBL
ST AUGUSTINE FL  1000   76     240/  4/  6 1019.9R
CAPERS NEARSHORE 0900   80     160/  4/  6   N/A
FRIPP NEARSHORE  0900   81     220/  4/  6   N/A


$$


USA.gov is the U.S. government's official web portal to all federal, state and local government web resources and services.